Location: Newark
(20.0000°S, 47.0000°E)
Time: 13:39:26
(UTC+00:00)

N. Korean satellite - Pass Details

Date: 18 August 2020
Orbit: 455 x 503 km, 97.2° (Epoch: 20 September)

Event Time Altitude Azimuth Distance (km) Brightness Sun altitude
Rises 01:47:12 0° 15° (NNE) 2,575 10.5 -20.3°
Reaches altitude 10° 01:49:15 10° 17° (NNE) 1,702 9.6 -19.8°
Maximum altitude 01:52:55 74° 101° (ESE) 529 6.8 -19.0°
Drops below altitude 10° 01:56:38 10° 186° (S) 1,726 9.2 -18.1°
Enters shadow 01:58:37 - 188° (S) 2,565 10.1 -17.6°
